Wheaton NDB, MN

8:56 PM CDT on July 20, 2017 (GMT -0500)
Wheaton Municipal

Weather History for KETH - July, 2014

Change the Weather History Date:

Tuesday, July 22, 2014

  Actual Average Record
Temperature  
Mean Temperature 68 °F -  
Max Temperature 75 °F 84 °F 97 °F (1984)
Min Temperature 60 °F 59 °F 50 °F (1985)
Cooling Degree Days 4    
Growing Degree Days 18 (Base 50)    
Moisture  
Dew Point 60 °F    
Average Humidity 76    
Maximum Humidity 100    
Minimum Humidity 53    
Precipitation  
Precipitation 0.00 in - - ()
Sea Level Pressure  
Sea Level Pressure 30.09 in    
Wind  
Wind Speed 8 mph (NW)    
Max Wind Speed 18 mph    
Max Gust Speed 25 mph    
Visibility 10 miles    
Events      
Averages and records for this station are not official NWS values.
T = Trace of Precipitation, MM = Missing Value Source: NWS Daily Summary

Daily Weather History Graph

Daily Weather History Graph

Search for Another Location

Airport or City:

Trip Planner

Search our weather history database for the weather conditions in past years. The results will help you decide how hot, cold, wet, or windy it might be!

Date:

Astronomy

Jul. 22, 2014 Rise Set
Actual Time 5:58 AM CDT 9:06 PM CDT
Civil Twilight 5:22 AM CDT 9:42 PM CDT
Nautical Twilight 4:35 AM CDT 10:28 PM CDT
Astronomical Twilight 3:39 AM CDT 11:24 PM CDT
Moon 2:34 AM CDT (7/22) 5:43 PM CDT (7/22)
Length of Visible Light 16h 19m
Length of Day
15h 08m
Waning Crescent, 16% of the Moon is Illuminated
Jul 22
Waning Crescent
Jul 26
New
Aug 3
First Quarter
Aug 10
Full
Aug 17
Last Quarter

Hourly Weather History & Observations

Time (CDT) Temp. Dew Point Humidity Pressure Visibility Wind Dir Wind Speed Gust Speed Precip Events Conditions
12:16 AM 66.2 °F 64.4 °F 94% 29.83 in 10.0 mi Calm Calm - N/A   Clear
12:36 AM 64.4 °F 62.6 °F 94% 29.84 in 10.0 mi Calm Calm - N/A   Clear
12:56 AM 64.4 °F 62.6 °F 94% 29.87 in 10.0 mi Calm Calm - N/A   Clear
1:16 AM 64.4 °F 62.6 °F 94% 29.86 in 10.0 mi Calm Calm - N/A   Clear
1:36 AM 64.4 °F 62.6 °F 94% 29.88 in 10.0 mi Calm Calm - N/A   Clear
1:56 AM 64.4 °F 62.6 °F 94% 29.88 in 10.0 mi West 5.8 mph - N/A   Clear
2:16 AM 64.4 °F 64.4 °F 100% 29.88 in 10.0 mi West 5.8 mph - N/A   Clear
2:36 AM 64.4 °F 62.6 °F 94% 29.89 in 10.0 mi West 6.9 mph - N/A   Clear
2:56 AM 64.4 °F 62.6 °F 94% 29.90 in 10.0 mi WNW 10.4 mph - N/A   Clear
3:16 AM 64.4 °F 62.6 °F 94% 29.91 in 10.0 mi WNW 11.5 mph - N/A   Clear
3:36 AM 64.4 °F 62.6 °F 94% 29.92 in 10.0 mi WNW 9.2 mph - N/A   Clear
3:56 AM 64.4 °F 62.6 °F 94% 29.92 in 10.0 mi WNW 9.2 mph - N/A   Clear
4:16 AM 64.4 °F 62.6 °F 94% 29.94 in 10.0 mi WNW 11.5 mph - N/A   Clear
4:36 AM 64.4 °F 62.6 °F 94% 29.95 in 10.0 mi WNW 9.2 mph - N/A   Clear
4:56 AM 64.4 °F 62.6 °F 94% 29.97 in 10.0 mi WNW 13.8 mph - N/A   Scattered Clouds
5:16 AM 64.4 °F 62.6 °F 94% 29.98 in 10.0 mi NW 13.8 mph 19.6 mph N/A   Overcast
5:36 AM 64.4 °F 62.6 °F 94% 30.00 in 10.0 mi West 10.4 mph - N/A   Overcast
5:56 AM 64.4 °F 62.6 °F 94% 30.01 in 10.0 mi WNW 9.2 mph - N/A   Mostly Cloudy
6:16 AM 64.4 °F 62.6 °F 94% 30.03 in 10.0 mi West 5.8 mph - N/A   Mostly Cloudy
6:36 AM 64.4 °F 62.6 °F 94% 30.01 in 10.0 mi NW 5.8 mph - N/A   Overcast
6:56 AM 64.4 °F 62.6 °F 94% 30.03 in 10.0 mi WNW 6.9 mph - N/A   Scattered Clouds
7:16 AM 64.4 °F 62.6 °F 94% 30.04 in 10.0 mi NW 8.1 mph - N/A   Mostly Cloudy
7:36 AM 64.4 °F 62.6 °F 94% 30.05 in 10.0 mi NW 12.7 mph 18.4 mph N/A   Mostly Cloudy
7:56 AM 64.4 °F 60.8 °F 88% 30.07 in 10.0 mi NNW 15.0 mph 20.7 mph N/A   Mostly Cloudy
8:16 AM 64.4 °F 60.8 °F 88% 30.08 in 10.0 mi NW 11.5 mph 21.9 mph N/A   Overcast
8:36 AM 64.4 °F 60.8 °F 88% 30.09 in 10.0 mi NNW 12.7 mph - N/A   Mostly Cloudy
8:56 AM 66.2 °F 60.8 °F 83% 30.09 in 10.0 mi NNW 12.7 mph - N/A   Scattered Clouds
9:16 AM 66.2 °F 60.8 °F 83% 30.09 in 10.0 mi NW 16.1 mph 21.9 mph N/A   Clear
9:36 AM 66.2 °F 60.8 °F 83% 30.09 in 10.0 mi NW 13.8 mph 21.9 mph N/A   Clear
9:56 AM 68.0 °F 60.8 °F 78% 30.09 in 10.0 mi NW 16.1 mph 24.2 mph N/A   Clear
10:16 AM 69.8 °F 60.8 °F 73% 30.10 in 10.0 mi NW 15.0 mph 18.4 mph N/A   Clear
10:36 AM 69.8 °F 60.8 °F 73% 30.11 in 10.0 mi NNW 17.3 mph 21.9 mph N/A   Clear
10:56 AM 71.6 °F 60.8 °F 69% 30.11 in 10.0 mi NW 15.0 mph 19.6 mph N/A   Clear
11:16 AM 71.6 °F 60.8 °F 69% 30.12 in 10.0 mi NW 15.0 mph 23.0 mph N/A   Clear
11:36 AM 71.6 °F 59.0 °F 64% 30.12 in 10.0 mi NNW 18.4 mph 21.9 mph N/A   Clear
12:16 PM 73.4 °F 60.8 °F 65% 30.12 in 10.0 mi NNW 17.3 mph 24.2 mph N/A   Clear
12:36 PM 71.6 °F 59.0 °F 64% 30.13 in 10.0 mi NNW 16.1 mph 21.9 mph N/A   Clear
12:56 PM 73.4 °F 57.2 °F 57% 30.13 in 10.0 mi NNW 16.1 mph 21.9 mph N/A   Clear
1:16 PM 71.6 °F 55.4 °F 57% 30.13 in 10.0 mi NNW 12.7 mph 24.2 mph N/A   Clear
1:36 PM 73.4 °F 55.4 °F 53% 30.14 in 10.0 mi NNW 13.8 mph 24.2 mph N/A   Clear
1:56 PM 73.4 °F 57.2 °F 57% 30.14 in 10.0 mi NNW 13.8 mph 18.4 mph N/A   Clear
2:16 PM 73.4 °F 57.2 °F 57% 30.15 in 10.0 mi North 15.0 mph 19.6 mph N/A   Clear
2:36 PM 73.4 °F 57.2 °F 57% 30.15 in 10.0 mi NNW 15.0 mph 20.7 mph N/A   Clear
2:56 PM 73.4 °F 57.2 °F 57% 30.16 in 10.0 mi NNW 15.0 mph 21.9 mph N/A   Clear
3:16 PM 75.2 °F 57.2 °F 53% 30.16 in 10.0 mi North 13.8 mph - N/A   Clear
3:36 PM 75.2 °F 57.2 °F 53% 30.17 in 10.0 mi NNW 15.0 mph 25.3 mph N/A   Clear
3:56 PM 75.2 °F 57.2 °F 53% 30.17 in 10.0 mi NNW 11.5 mph - N/A   Clear
4:16 PM 75.2 °F 57.2 °F 53% 30.17 in 10.0 mi NNW 13.8 mph 18.4 mph N/A   Scattered Clouds
4:36 PM 75.2 °F 57.2 °F 53% 30.18 in 10.0 mi NNW 15.0 mph 19.6 mph N/A   Scattered Clouds
4:56 PM 75.2 °F 57.2 °F 53% 30.18 in 10.0 mi NNW 11.5 mph - N/A   Clear
5:16 PM 75.2 °F 57.2 °F 53% 30.19 in 10.0 mi NNW 11.5 mph 18.4 mph N/A   Clear
5:36 PM 75.2 °F 57.2 °F 53% 30.19 in 10.0 mi North 10.4 mph 18.4 mph N/A   Clear
5:56 PM 75.2 °F 57.2 °F 53% 30.19 in 10.0 mi NNW 11.5 mph - N/A   Clear
6:16 PM 73.4 °F 57.2 °F 57% 30.20 in 10.0 mi NNW 10.4 mph - N/A   Scattered Clouds
6:36 PM 73.4 °F 57.2 °F 57% 30.20 in 10.0 mi North 8.1 mph - N/A   Clear
6:56 PM 73.4 °F 57.2 °F 57% 30.20 in 10.0 mi North 10.4 mph - N/A   Clear
7:16 PM 73.4 °F 57.2 °F 57% 30.20 in 10.0 mi North 8.1 mph - N/A   Clear
7:36 PM 71.6 °F 57.2 °F 60% 30.20 in 10.0 mi North 8.1 mph - N/A   Clear
7:56 PM 71.6 °F 57.2 °F 60% 30.21 in 10.0 mi North 6.9 mph - N/A   Clear
8:16 PM 69.8 °F 57.2 °F 64% 30.21 in 10.0 mi North 4.6 mph - N/A   Clear
8:36 PM 68.0 °F 57.2 °F 68% 30.21 in 10.0 mi North 4.6 mph - N/A   Clear
9:16 PM 66.2 °F 57.2 °F 73% 30.23 in 10.0 mi Calm Calm - N/A   Clear
9:36 PM 64.4 °F 57.2 °F 77% 30.24 in 10.0 mi North 3.5 mph - N/A   Clear
9:56 PM 64.4 °F 57.2 °F 77% 30.25 in 10.0 mi North 3.5 mph - N/A   Clear
10:16 PM 62.6 °F 57.2 °F 82% 30.25 in 10.0 mi North 3.5 mph - N/A   Clear
10:36 PM 62.6 °F 57.2 °F 82% 30.25 in 10.0 mi Calm Calm - N/A   Clear
10:56 PM 62.6 °F 57.2 °F 82% 30.25 in 10.0 mi Calm Calm - N/A   Clear
11:16 PM 62.6 °F 57.2 °F 82% 30.26 in 10.0 mi Calm Calm - N/A   Clear
11:36 PM 60.8 °F 57.2 °F 88% 30.26 in 10.0 mi Calm Calm - N/A   Clear